Regional Weather Roundup
Issued by NWS

Current Version | Previous Version | Text Only | Print | Product List | Glossary On
Versions: 1 2 3 4 5 6 7 8 9 10 11 12 13 14 15 16 17 18 19 20 21 22 23 24 25 26 27 28
000
ASUS45 KBOI 300710
RWRID

IDAHO REGIONAL WEATHER ROUNDUP
NATIONAL WEATHER SERVICE BOISE ID
100 AM MDT SAT APR 30 2016

NOTE: "FAIR" INDICATES FEW OR NO CLOUDS BELOW 12000 FEET
WITH NO SIGNIFICANT WEATHER AND/OR OBSTRUCTIONS TO VISIBILITY

IDZ012-014-300800-
SOUTHWEST IDAHO


CITY           SKY/WX    TMP DP  RH WIND       PRES   REMARKS
BOISE          CLEAR     46  37  71 NW13      29.95R
CALDWELL       CLEAR     45  38  76 W15       29.99R
MOUNTAIN HOME  CLEAR     46  37  70 NW22      29.91R
$$

IDZ016-017-300800-
SOUTHCENTRAL IDAHO


CITY           SKY/WX    TMP DP  RH WIND       PRES   REMARKS
BURLEY         CLOUDY    44  38  79 W9G17     29.90R
JEROME         CLEAR     42  37  82 SW8       29.90R
TWIN FALLS     MOCLDY    43  37  79 SW8       29.92R
$$

IDZ019>023-300800-
SOUTHEAST IDAHO


CITY           SKY/WX    TMP DP  RH WIND       PRES   REMARKS
IDAHO FALLS    PTCLDY    35  33  92 N3        29.92R
POCATELLO      CLOUDY    40  37  89 SE3       29.91R
REXBURG        CLOUDY    43  37  79 E5        29.91S
$$

IDZ006-010-011-018-031-032-300800-
CENTRAL IDAHO MOUNTAINS


CITY           SKY/WX    TMP DP  RH WIND       PRES   REMARKS
MCCALL         PTCLDY    39  31  72 NW7       29.99R WCI  34
HAILEY         PTCLDY    37  36  93 NW6       29.93R WCI  33
STANLEY          N/A     32  28  85 W5        29.98R WCI  27
SALMON         CLEAR     36  32  87 S3        29.99R
CHALLIS        PTCLDY    37  28  70 NW5       29.97R WCI  33
$$

IDZ002-004-006-007-026-300800-
NORTHERN IDAHO


CITY           SKY/WX    TMP DP  RH WIND       PRES   REMARKS
LEWISTON       CLOUDY    49  47  93 CALM      30.07S
LOWELL           N/A     46  44  93 CALM      30.09R
COEUR D`ALENE  CLOUDY    46  43  87 N5        30.05R
MULLAN PASS    FLURRIES  32  31  96 CALM      30.03R
$$




USA.gov is the U.S. government's official web portal to all federal, state and local government web resources and services.